Miscellaneous Local Product
Issued by NWS Hastings, NE

Home | Current Version | Previous Version | Graphics & Text | Print | Product List | Glossary On
Versions: 1 2 3 4 5 6 7 8 9 10 11 12 13 14 15 16 17 18 19 20 21 22 23 24 25 26 27 28 29 30 31 32 33 34 35 36 37 38 39 40 41 42 43 44 45 46 47 48 49 50
000
AXUS43 KGID 252102
MISGRI

GID CWA HOURLY WEATHER ROUNDUP
NATIONAL WEATHER SERVICE HASTINGS NE
300 PM CST THU DEC 25 2014

NOTE: "FAIR" INDICATES FEW OR NO CLOUDS BELOW 12,000 FEET WITH NO
SIGNIFICANT WEATHER AND/OR OBSTRUCTIONS TO VISIBILITY.

...SOUTH CENTRAL NEBRASKA...

CITY           SKY/WX    TMP DP  RH WIND       PRES   REMARKS
GRAND ISLAND   SUNNY     44  26  49 VRB5      29.53R
HASTINGS       SUNNY     45  25  45 S8        29.52R
KEARNEY        SUNNY     45  23  42 E6        29.52R
ORD            SUNNY     42  25  50 NE12      29.53R
YORK           SUNNY     46  30  53 S12       29.53S
AURORA         SUNNY     45  28  51 S9        29.52R
LEXINGTON      SUNNY     41  26  54 E9        29.50R
HOLDREGE       SUNNY     43  23  45 CALM      29.50R
HEBRON         SUNNY     49  28  43 S15G23    29.53R

...NEBRASKA PANHANDLE...

CITY           SKY/WX    TMP DP  RH WIND       PRES   REMARKS
CHADRON        CLOUDY    29  26  89 NE20G28   29.70R FOG     WCI  16
ALLIANCE       SNOW      28  26  92 NE24G33   29.60R VSB 1/2 WCI  14
SCOTTSBLUFF    LGT SNOW  29  26  89 NE18      29.60S VSB 3/4 WCI  16
SIDNEY         LGT SNOW  29  25  85 N24       29.55R FOG     WCI  15

...WESTERN AND NORTH CENTRAL NEBRASKA...

CITY           SKY/WX    TMP DP  RH WIND       PRES   REMARKS
VALENTINE      LGT SNOW  30  27  88 N18G29    29.65R FOG     WCI  18
AINSWORTH      FOG       30  30  99 N26       29.60R VSB 3/4 WCI  16
ONEILL         CLOUDY    32  31  94 N16G22    29.60R WCI  21
BROKEN BOW     FAIR      38  29  70 N17       29.52R WCI  28
IMPERIAL       SUNNY     41  27  57 N18G26    29.51R
NORTH PLATTE   PTSUNNY   37  26  64 NE21      29.52R WCI  26
MCCOOK         SUNNY     42  23  46 NE9       29.49R

...EASTERN NEBRASKA...

CITY           SKY/WX    TMP DP  RH WIND       PRES   REMARKS
NORFOLK        SUNNY     42  31  64 E8        29.57R
SO SIOUX CITY  SUNNY     43  31  62 SE9       29.62R
TEKAMAH        SUNNY     46  36  68 SE13      29.60R
COLUMBUS       SUNNY     45  30  57 S9        29.57S
ALBION         SUNNY     42  29  59 E9        29.55R
OMAHA EPPLEY   MOSUNNY   49  31  49 S22       29.60S
OFFUTT AFB     SUNNY     48  34  57 SE13      29.59S
MILLARD        SUNNY     48  34  58 SE10      29.59R
LINCOLN        SUNNY     50  30  46 S17       29.56S
NEBRASKA CITY  SUNNY     51  26  38 S21       29.59S
BEATRICE       SUNNY     50  30  45 S21G28    29.54S
FALLS CITY     SUNNY     51  29  42 S21G35    29.60S

...NORTHERN KANSAS...

CITY           SKY/WX    TMP DP  RH WIND       PRES   REMARKS
GOODLAND       SUNNY     45  23  42 N17       29.46R
HILL CITY      SUNNY     56  25  30 W8        29.45R
NORTON         CLEAR     48  19  32 CALM      29.46R
PHILLIPSBURG   SUNNY     54  25  32 CALM      29.46S
SMITH CENTER   SUNNY     52  27  37 S12       29.49R
BELOIT         SUNNY     54  28  37 S14G20    29.50S
HAYS           MOSUNNY   57  27  30 S21G26    29.47R
RUSSELL        PTSUNNY   56  27  32 S21G32    29.46R
CONCORDIA      SUNNY     50  31  48 S15G22    29.52R
SALINA         MOSUNNY   52  31  44 S16G30    29.53F
TOPEKA         PTSUNNY   55  30  38 S20G29    29.64S



USA.gov is the U.S. government's official web portal to all federal, state and local government web resources and services.